| time (UTC) | temp F | wind direction | speed MPH | gust MPH | rain 1hr in | rain 24hr in | rain mn in | humidity % | barometer mb |
| 20260903162704 | 56 | 127 | 0.0 | 2.0 | 0.00 | 0.17 | 0.03 | 93 | 1007.5 |
| 20260903160204 | 56 | 151 | 0.0 | 2.0 | 0.00 | 0.17 | 0.03 | 93 | 1007.4 |
| 20260903155204 | 56 | 151 | 0.0 | 2.0 | 0.00 | 0.17 | 0.03 | 94 | 1007.3 |
| 20260903154704 | 56 | 151 | 0.0 | 2.0 | 0.00 | 0.17 | 0.03 | 94 | 1007.3 |
| 20260903153704 | 56 | 151 | 0.0 | 2.0 | 0.00 | 0.17 | 0.03 | 94 | 1007.2 |
| 20260903152704 | 55 | 151 | 0.0 | 2.0 | 0.00 | 0.17 | 0.03 | 94 | 1007.2 |
| 20260903151704 | 55 | 151 | 0.0 | 2.0 | 0.01 | 0.17 | 0.03 | 94 | 1007.2 |
| 20260903151204 | 55 | 151 | 1.0 | 2.0 | 0.01 | 0.17 | 0.03 | 94 | 1007.2 |
| 20260903150704 | 55 | 151 | 0.0 | 2.0 | 0.01 | 0.17 | 0.03 | 94 | 1007.2 |
| 20260903144704 | 55 | 151 | 0.0 | 2.0 | 0.01 | 0.17 | 0.03 | 94 | 1007.1 |
| 20260903142704 | 55 | 151 | 0.0 | 2.0 | 0.01 | 0.17 | 0.03 | 94 | 1007.0 |
| 20260903141204 | 55 | 144 | 0.0 | 1.0 | 0.00 | 0.16 | 0.02 | 95 | 1006.8 |
| 20260903140704 | 55 | 144 | 0.0 | 2.0 | 0.00 | 0.16 | 0.02 | 95 | 1006.8 |
| 20260903140204 | 55 | 144 | 0.0 | 2.0 | 0.00 | 0.16 | 0.02 | 95 | 1006.8 |
| 20260903134704 | 55 | 144 | 0.0 | 2.0 | 0.00 | 0.16 | 0.02 | 95 | 1006.7 |
| 20260903134204 | 55 | 144 | 0.0 | 2.0 | 0.00 | 0.16 | 0.02 | 95 | 1006.7 |
| 20260903131704 | 54 | 144 | 0.0 | 2.0 | 0.00 | 0.16 | 0.02 | 95 | 1006.5 |
| 20260903125204 | 54 | 144 | 0.0 | 2.0 | 0.00 | 0.16 | 0.02 | 95 | 1006.4 |
| 20260903124704 | 54 | 144 | 0.0 | 2.0 | 0.00 | 0.16 | 0.02 | 95 | 1006.3 |
| 20260903124204 | 55 | 144 | 0.0 | 2.0 | 0.00 | 0.16 | 0.02 | 95 | 1006.4 |
| 20260903123704 | 55 | 144 | 0.0 | 2.0 | 0.00 | 0.16 | 0.02 | 95 | 1006.3 |
| 20260903123204 | 55 | 144 | 0.0 | 2.0 | 0.00 | 0.16 | 0.02 | 95 | 1006.3 |
| 20260903122704 | 55 | 144 | 0.0 | 2.0 | 0.00 | 0.16 | 0.02 | 95 | 1006.3 |
| 20260903122203 | 55 | 144 | 0.0 | 2.0 | 0.00 | 0.16 | 0.02 | 95 | 1006.3 |
| 20260903121704 | 55 | 144 | 0.0 | 2.0 | 0.01 | 0.16 | 0.02 | 95 | 1006.2 |
| 20260903120704 | 55 | 144 | 0.0 | 2.0 | 0.01 | 0.16 | 0.02 | 95 | 1006.2 |
| 20260903115704 | 55 | 144 | 0.0 | 2.0 | 0.02 | 0.16 | 0.02 | 94 | 1006.1 |
| 20260903113204 | 55 | 144 | 0.0 | 2.0 | 0.02 | 0.16 | 0.02 | 94 | 1006.1 |
| 20260903112704 | 55 | 105 | 0.0 | 1.0 | 0.02 | 0.16 | 0.02 | 93 | 1006.1 |
| 20260903105204 | 56 | 112 | 0.0 | 2.0 | 0.00 | 0.14 | 0.00 | 92 | 1006.1 |
| 20260903103204 | 56 | 125 | 0.0 | 2.0 | 0.00 | 0.14 | 0.00 | 92 | 1006.0 |
| 20260903102204 | 56 | 128 | 0.0 | 2.0 | 0.00 | 0.14 | 0.00 | 93 | 1006.0 |
| 20260903101704 | 56 | 128 | 0.0 | 2.0 | 0.00 | 0.14 | 0.00 | 92 | 1005.9 |
| 20260903101204 | 56 | 128 | 0.0 | 2.0 | 0.00 | 0.14 | 0.00 | 93 | 1005.9 |
| 20260903100704 | 56 | 128 | 0.0 | 2.0 | 0.00 | 0.14 | 0.00 | 92 | 1005.9 |
| 20260903100204 | 56 | 128 | 0.0 | 2.0 | 0.00 | 0.14 | 0.00 | 92 | 1005.9 |
| 20260903095704 | 56 | 100 | 0.0 | 2.0 | 0.00 | 0.14 | 0.00 | 93 | 1005.9 |
| 20260903095204 | 56 | 100 | 0.0 | 2.0 | 0.00 | 0.14 | 0.00 | 93 | 1005.8 |
| 20260903093203 | 56 | 157 | 0.0 | 2.0 | 0.00 | 0.14 | 0.00 | 93 | 1005.8 |
| 20260903091204 | 56 | 157 | 0.0 | 1.0 | 0.00 | 0.14 | 0.00 | 93 | 1005.7 |
| 20260903090704 | 56 | 157 | 0.0 | 2.0 | 0.00 | 0.14 | 0.00 | 93 | 1005.7 |
| 20260903085704 | 56 | 83 | 0.0 | 2.0 | 0.00 | 0.14 | 0.00 | 93 | 1005.6 |
| 20260903084704 | 55 | 138 | 0.0 | 2.0 | 0.00 | 0.14 | 0.00 | 93 | 1005.6 |
| 20260903081704 | 55 | 152 | 0.0 | 2.0 | 0.00 | 0.14 | 0.00 | 93 | 1005.4 |
| 20260903080203 | 55 | 152 | 0.0 | 2.0 | 0.00 | 0.14 | 0.00 | 93 | 1005.4 |
| 20260903075704 | 56 | 152 | 0.0 | 2.0 | 0.00 | 0.14 | 0.00 | 93 | 1005.4 |
| 20260903074704 | 56 | 152 | 0.0 | 2.0 | 0.00 | 0.14 | 0.00 | 93 | 1005.3 |
| 20260903074204 | 56 | 152 | 0.0 | 2.0 | 0.00 | 0.14 | 0.00 | 93 | 1005.4 |
| 20260903073203 | 56 | 142 | 0.0 | 2.0 | 0.00 | 0.14 | 0.00 | 92 | 1005.4 |
| 20260903072704 | 56 | 142 | 0.0 | 2.0 | 0.00 | 0.14 | 0.00 | 92 | 1005.3 |
| 20260903072204 | 56 | 142 | 0.0 | 2.0 | 0.00 | 0.14 | 0.00 | 92 | 1005.3 |
| 20260903070704 | 56 | 181 | 1.0 | 2.0 | 0.00 | 0.14 | 0.00 | 92 | 1005.2 |
| 20260903065704 | 56 | 164 | 0.0 | 2.0 | 0.00 | 0.14 | 0.14 | 93 | 1005.1 |
| 20260903063704 | 56 | 150 | 1.0 | 1.0 | 0.00 | 0.14 | 0.14 | 93 | 1004.9 |
| 20260903062704 | 55 | 222 | 0.0 | 2.0 | 0.00 | 0.14 | 0.14 | 94 | 1004.9 |
| 20260903062203 | 55 | 48 | 1.0 | 2.0 | 0.00 | 0.14 | 0.14 | 94 | 1004.9 |
| 20260903061203 | 55 | 150 | 0.0 | 2.0 | 0.00 | 0.14 | 0.14 | 94 | 1004.9 |
| 20260903060704 | 55 | 355 | 0.0 | 2.0 | 0.00 | 0.14 | 0.14 | 93 | 1005.0 |
| 20260903055704 | 55 | 338 | 0.0 | 2.0 | 0.00 | 0.14 | 0.14 | 93 | 1005.1 |
| 20260903055203 | 55 | 338 | 0.0 | 2.0 | 0.00 | 0.14 | 0.14 | 93 | 1005.1 |
| 20260903054204 | 56 | 338 | 0.0 | 2.0 | 0.00 | 0.14 | 0.14 | 93 | 1005.1 |
| 20260903051204 | 56 | 234 | 0.0 | 2.0 | 0.00 | 0.14 | 0.14 | 92 | 1005.0 |
| 20260903050704 | 56 | 8 | 0.0 | 2.0 | 0.00 | 0.14 | 0.14 | 92 | 1004.9 |
| 20260903045203 | 56 | 81 | 0.0 | 1.0 | 0.00 | 0.14 | 0.14 | 92 | 1004.7 |
| 20260903044204 | 57 | 58 | 1.0 | 2.0 | 0.00 | 0.14 | 0.14 | 92 | 1004.6 |
| 20260903042703 | 57 | 138 | 1.0 | 2.0 | 0.00 | 0.14 | 0.14 | 92 | 1004.6 |
| 20260903041704 | 57 | 143 | 1.0 | 2.0 | 0.00 | 0.14 | 0.14 | 93 | 1004.5 |
| 20260903041203 | 57 | 98 | 1.0 | 2.0 | 0.00 | 0.14 | 0.14 | 93 | 1004.6 |
| 20260903040703 | 57 | 163 | 0.0 | 2.0 | 0.00 | 0.14 | 0.14 | 93 | 1004.5 |
| 20260903040203 | 57 | 158 | 0.0 | 2.0 | 0.00 | 0.14 | 0.14 | 93 | 1004.5 |
| 20260903035704 | 57 | 156 | 1.0 | 3.0 | 0.00 | 0.14 | 0.14 | 93 | 1004.4 |
| 20260903032704 | 57 | 81 | 0.0 | 2.0 | 0.00 | 0.14 | 0.14 | 94 | 1004.2 |
| 20260903032204 | 57 | 169 | 1.0 | 2.0 | 0.00 | 0.14 | 0.14 | 94 | 1004.1 |
| 20260903030703 | 57 | 158 | 1.0 | 2.0 | 0.00 | 0.14 | 0.14 | 94 | 1003.9 |
| 20260903024704 | 57 | 178 | 0.0 | 2.0 | 0.00 | 0.14 | 0.14 | 93 | 1003.5 |
| 20260903023703 | 57 | 99 | 0.0 | 2.0 | 0.00 | 0.14 | 0.14 | 93 | 1003.4 |
| 20260903022704 | 57 | 146 | 0.0 | 2.0 | 0.00 | 0.14 | 0.14 | 93 | 1003.1 |
| 20260903021204 | 58 | 178 | 0.0 | 2.0 | 0.00 | 0.14 | 0.14 | 92 | 1003.1 |
| 20260903020704 | 58 | 100 | 0.0 | 2.0 | 0.00 | 0.14 | 0.14 | 92 | 1003.0 |
| 20260903014704 | 58 | 210 | 0.0 | 2.0 | 0.00 | 0.14 | 0.14 | 92 | 1002.6 |
| 20260903012704 | 59 | 159 | 0.0 | 2.0 | 0.00 | 0.14 | 0.14 | 93 | 1002.4 |
| 20260903012204 | 59 | 44 | 1.0 | 2.0 | 0.00 | 0.14 | 0.14 | 93 | 1002.2 |
| 20260903011204 | 59 | 236 | 0.0 | 3.0 | 0.00 | 0.14 | 0.14 | 93 | 1002.1 |
| 20260903003204 | 58 | 159 | 1.0 | 3.0 | 0.00 | 0.14 | 0.14 | 94 | 1001.7 |
| 20260903002204 | 58 | 154 | 1.0 | 2.0 | 0.00 | 0.14 | 0.14 | 94 | 1001.6 |
| 20260903001704 | 58 | 160 | 1.0 | 2.0 | 0.00 | 0.14 | 0.14 | 94 | 1001.6 |
| 20260902234704 | 58 | 160 | 1.0 | 2.0 | 0.06 | 0.14 | 0.14 | 94 | 1001.7 |
| 20260902234205 | 58 | 154 | 1.0 | 2.0 | 0.07 | 0.14 | 0.14 | 94 | 1001.8 |
| 20260902233705 | 58 | 163 | 1.0 | 2.0 | 0.07 | 0.14 | 0.14 | 94 | 1001.8 |
| 20260902233205 | 58 | 155 | 1.0 | 3.0 | 0.08 | 0.14 | 0.14 | 94 | 1001.9 |
| 20260902232705 | 58 | 157 | 1.0 | 2.0 | 0.08 | 0.14 | 0.14 | 93 | 1002.1 |
| 20260902231205 | 58 | 168 | 0.0 | 2.0 | 0.08 | 0.13 | 0.13 | 93 | 1002.3 |
| 20260902230205 | 58 | 173 | 0.0 | 2.0 | 0.07 | 0.11 | 0.11 | 92 | 1002.5 |
| 20260902224705 | 59 | 195 | 0.0 | 2.0 | 0.05 | 0.08 | 0.08 | 92 | 1002.4 |
| 20260902222205 | 60 | 306 | 0.0 | 2.0 | 0.03 | 0.05 | 0.05 | 90 | 1002.5 |
| 20260902221705 | 60 | 306 | 0.0 | 2.0 | 0.03 | 0.05 | 0.05 | 89 | 1002.5 |
| 20260902220205 | 60 | 306 | 0.0 | 1.0 | 0.02 | 0.04 | 0.04 | 88 | 1002.6 |
| 20260902215705 | 61 | 239 | 0.0 | 2.0 | 0.02 | 0.04 | 0.04 | 88 | 1002.5 |
| 20260902215205 | 61 | 241 | 0.0 | 2.0 | 0.02 | 0.04 | 0.04 | 88 | 1002.6 |
| 20260902214705 | 61 | 241 | 0.0 | 2.0 | 0.01 | 0.03 | 0.03 | 87 | 1002.6 |
| 20260902213705 | 62 | 167 | 0.0 | 2.0 | 0.01 | 0.03 | 0.03 | 85 | 1002.7 |
| 20260902212205 | 63 | 179 | 1.0 | 2.0 | 0.00 | 0.02 | 0.02 | 83 | 1002.7 |
| 20260902211705 | 63 | 153 | 1.0 | 3.0 | 0.00 | 0.02 | 0.02 | 81 | 1002.7 |
| 20260902211205 | 64 | 218 | 0.0 | 2.0 | 0.00 | 0.02 | 0.02 | 81 | 1002.6 |
| 20260902210705 | 64 | 300 | 0.0 | 2.0 | 0.00 | 0.02 | 0.02 | 82 | 1002.5 |
| 20260902205205 | 65 | 163 | 1.0 | 2.0 | 0.00 | 0.02 | 0.02 | 79 | 1002.4 |
| 20260902204705 | 64 | 262 | 1.0 | 2.0 | 0.01 | 0.02 | 0.02 | 80 | 1002.4 |
| 20260902204205 | 64 | 240 | 0.0 | 2.0 | 0.01 | 0.02 | 0.02 | 81 | 1002.5 |
| 20260902202705 | 63 | 4 | 0.0 | 2.0 | 0.02 | 0.02 | 0.02 | 83 | 1002.5 |
| 20260902202205 | 63 | 216 | 0.0 | 3.0 | 0.02 | 0.02 | 0.02 | 84 | 1002.6 |
| 20260902195704 | 62 | 146 | 0.0 | 1.0 | 0.02 | 0.02 | 0.02 | 87 | 1002.8 |
| 20260902195204 | 62 | 117 | 0.0 | 2.0 | 0.02 | 0.02 | 0.02 | 87 | 1002.8 |
| 20260902192205 | 66 | 152 | 1.0 | 3.0 | 0.00 | 0.00 | 0.00 | 68 | 1002.7 |
| 20260902191705 | 66 | 162 | 1.0 | 3.0 | 0.00 | 0.00 | 0.00 | 68 | 1002.7 |
| 20260902191205 | 66 | 163 | 1.0 | 2.0 | 0.00 | 0.00 | 0.00 | 66 | 1002.7 |
| 20260902190705 | 67 | 159 | 0.0 | 2.0 | 0.00 | 0.00 | 0.00 | 70 | 1002.8 |
| 20260902185207 | 66 | 237 | 0.0 | 2.0 | 0.00 | 0.00 | 0.00 | 69 | 1003.0 |
| 20260902184705 | 65 | 237 | 0.0 | 1.0 | 0.00 | 0.00 | 0.00 | 73 | 1003.0 |
| 20260902184205 | 64 | 193 | 0.0 | 2.0 | 0.00 | 0.00 | 0.00 | 74 | 1003.1 |
| 20260902183705 | 64 | 160 | 0.0 | 2.0 | 0.00 | 0.00 | 0.00 | 75 | 1003.1 |
| 20260902182205 | 63 | 160 | 0.0 | 2.0 | 0.00 | 0.00 | 0.00 | 76 | 1003.4 |
| 20260902181705 | 63 | 160 | 0.0 | 2.0 | 0.00 | 0.00 | 0.00 | 77 | 1003.5 |
| 20260902181205 | 63 | 160 | 0.0 | 2.0 | 0.00 | 0.00 | 0.00 | 76 | 1003.5 |
| 20260902172705 | 63 | 160 | 0.0 | 2.0 | 0.00 | 0.00 | 0.00 | 78 | 1003.9 |
| 20260902172205 | 63 | 160 | 0.0 | 2.0 | 0.00 | 0.00 | 0.00 | 77 | 1003.9 |
| 20260902170704 | 62 | 154 | 0.0 | 2.0 | 0.00 | 0.00 | 0.00 | 79 | 1004.1 |
| 20260902165705 | 62 | 138 | 0.0 | 1.0 | 0.00 | 0.00 | 0.00 | 79 | 1004.2 |
| 20260902165204 | 62 | 137 | 0.0 | 2.0 | 0.00 | 0.00 | 0.00 | 79 | 1004.2 |
| 20260902164704 | 62 | 137 | 0.0 | 2.0 | 0.00 | 0.00 | 0.00 | 80 | 1004.2 |
| 20260902164204 | 62 | 151 | 0.0 | 1.0 | 0.00 | 0.00 | 0.00 | 80 | 1004.2 |